Weather History for Nasa Shuttle, FL

Change the Weather History Date:

Monday, July 14, 2014

  Actual Average Record
Temperature  
Mean Temperature 80 °F -  
Max Temperature 91 °F 85 °F 93 °F (2004)
Min Temperature 71 °F 71 °F 71 °F (2001)
Cooling Degree Days 16    
Growing Degree Days 30 (Base 50)    
Moisture  
Dew Point 74 °F    
Average Humidity 89    
Maximum Humidity 100    
Minimum Humidity 62    
Precipitation  
Precipitation 0.58 in - - ()
Sea Level Pressure  
Sea Level Pressure 30.08 in    
Wind  
Wind Speed 4 mph (South)    
Max Wind Speed 17 mph    
Max Gust Speed 34 mph    
Visibility 6 miles    
Events Rain , Thunderstorm    
Averages and records for this station are not official NWS values.
T = Trace of Precipitation, MM = Missing Value Source: NWS Daily Summary

Daily Weather History Graph

Daily Weather History Graph

Search for Another Location

Airport:

Trip Planner

Search our weather history database for the weather conditions in past years. The results will help you decide how hot, cold, wet, or windy it might be!

Date:

Astronomy

Jul. 14, 2014 Rise Set
Actual Time 6:34 AM EDT 8:22 PM EDT
Civil Twilight 6:07 AM EDT 8:49 PM EDT
Nautical Twilight 5:36 AM EDT 9:20 PM EDT
Astronomical Twilight 5:02 AM EDT 9:54 PM EDT
Moon 10:10 PM EDT (7/14) 8:59 AM EDT (7/14)
Length of Visible Light 14h 41m
Length of Day
13h 48m
Waning Gibbous, 93% of the Moon is Illuminated
Jul 14
Waning Gibbous
Jul 18
Last Quarter
Jul 26
New
Aug 3
First Quarter
Aug 10
Full

Hourly Weather History & Observations

Time (EDT) Temp. Heat Index Dew Point Humidity Pressure Visibility Wind Dir Wind Speed Gust Speed Precip Events Conditions
12:58 AM 78.3 °F - 75.0 °F 90% 30.10 in 10.0 mi SE 2.3 mph - N/A   Clear
1:58 AM 77.4 °F - 74.8 °F 92% 30.10 in 10.0 mi South 3.5 mph - N/A   Clear
2:58 AM 76.1 °F - 74.3 °F 94% 30.08 in 9.0 mi South 2.3 mph - N/A   Partly Cloudy
3:58 AM 77.2 °F - 75.9 °F 96% 30.08 in 10.0 mi NW 1.2 mph - N/A   Clear
4:58 AM 78.1 °F - 76.3 °F 94% 30.09 in 10.0 mi SW 4.6 mph - N/A   Clear
5:58 AM 75.4 °F - 73.8 °F 95% 30.09 in 5.0 mi Calm Calm - N/A   Clear
6:33 AM 73.4 °F - 73.4 °F 100% 30.08 in 2.5 mi Calm Calm - N/A   Clear
6:38 AM 73.4 °F - 73.4 °F 100% 30.08 in 4.0 mi Calm Calm - N/A   Clear
6:53 AM 73.4 °F - 71.6 °F 94% 30.08 in 2.0 mi Calm Calm - N/A   Clear
6:58 AM 72.7 °F - 72.1 °F 98% 30.09 in 1.5 mi Calm Calm - N/A   Clear
7:08 AM 73.4 °F - 73.4 °F 100% 30.09 in 1.0 mi Calm Calm - N/A   Clear
7:13 AM 73.4 °F - 73.4 °F 100% 30.09 in 1.0 mi Calm Calm - N/A   Clear
7:23 AM 73.4 °F - 73.4 °F 100% 30.09 in 1.2 mi South 2.3 mph - N/A   Clear
7:53 AM 75.2 °F - 75.2 °F 100% 30.09 in 2.5 mi SSE 2.3 mph - N/A   Clear
7:58 AM 75.9 °F - 74.7 °F 96% 30.10 in 2.5 mi SSE 2.3 mph - N/A   Clear
8:08 AM 77.0 °F - 77.0 °F 100% 30.09 in 1.2 mi Calm Calm - N/A   Clear
8:13 AM 78.8 °F - 77.0 °F 94% 30.10 in 1.0 mi South 2.3 mph - N/A   Clear
8:43 AM 80.6 °F 88.1 °F 78.8 °F 94% 30.10 in 1.2 mi SW 6.9 mph - N/A   Clear
8:58 AM 81.7 °F 90.5 °F 78.4 °F 90% 30.11 in 1.2 mi SSW 6.9 mph - N/A   Clear
9:33 AM 82.4 °F 90.9 °F 77.0 °F 84% 30.10 in 3.0 mi SSW 8.1 mph - N/A   Haze
9:58 AM 83.8 °F 93.9 °F 77.4 °F 81% 30.11 in 10.0 mi SSW 10.4 mph - N/A   Partly Cloudy
10:58 AM 85.3 °F 95.8 °F 77.0 °F 76% 30.11 in 10.0 mi SSW 5.8 mph - N/A   Scattered Clouds
11:58 AM 87.4 °F 99.2 °F 77.2 °F 71% 30.11 in 10.0 mi South 5.8 mph - N/A   Partly Cloudy
12:58 PM 87.6 °F 97.6 °F 75.4 °F 67% 30.10 in 10.0 mi Variable 3.5 mph - N/A   Scattered Clouds
1:58 PM 90.0 °F 100.7 °F 75.2 °F 62% 30.08 in 10.0 mi SW 4.6 mph - N/A   Mostly Cloudy
2:58 PM 90.0 °F 105.1 °F 78.4 °F 69% 30.07 in 10.0 mi Variable 5.8 mph 21.9 mph N/A   Mostly Cloudy
3:58 PM 89.6 °F 107.5 °F 80.2 °F 74% 30.05 in 10.0 mi SE 11.5 mph - N/A   Clear
4:58 PM 88.9 °F 103.3 °F 78.3 °F 71% 30.03 in 10.0 mi SE 10.4 mph - N/A   Clear
5:58 PM 87.8 °F 100.8 °F 77.9 °F 72% 30.03 in 10.0 mi SE 10.4 mph 17.3 mph N/A   Clear
6:58 PM 83.8 °F 93.5 °F 77.0 °F 80% 30.07 in 10.0 mi SSE 5.8 mph - N/A   Clear
7:38 PM 78.8 °F - 73.4 °F 83% 30.07 in 10.0 mi North 17.3 mph 33.4 mph N/A Thunderstorm Mostly Cloudy
7:47 PM 77.0 °F - 69.8 °F 78% 30.10 in 10.0 mi NW 15.0 mph 34.5 mph N/A Thunderstorm Overcast
7:55 PM 77.0 °F - 69.8 °F 78% 30.11 in 9.0 mi WNW 10.4 mph - N/A Rain , Thunderstorm Light Rain
7:58 PM 77.0 °F - 69.8 °F 78% 30.12 in 5.0 mi WNW 13.8 mph - N/A Rain , Thunderstorm Light Rain
8:01 PM 75.2 °F - 69.8 °F 83% 30.09 in 1.8 mi NW 13.8 mph - N/A Rain , Thunderstorm Heavy Thunderstorms and Rain
8:05 PM 73.4 °F - 69.8 °F 88% 30.08 in 0.8 mi NNW 13.8 mph - N/A Rain , Thunderstorm Heavy Thunderstorms and Rain
8:11 PM 73.4 °F - 69.8 °F 88% 30.09 in 0.8 mi NNE 16.1 mph - N/A Rain , Thunderstorm Heavy Thunderstorms and Rain
8:16 PM 71.6 °F - 69.8 °F 94% 30.08 in 1.0 mi ENE 9.2 mph - N/A Rain , Thunderstorm Light Thunderstorms and Rain
8:21 PM 71.6 °F - 69.8 °F 94% 30.07 in 2.5 mi Variable 3.5 mph - N/A Rain , Thunderstorm Light Thunderstorms and Rain
8:26 PM 71.6 °F - 69.8 °F 94% 30.07 in 7.0 mi East 10.4 mph - N/A Rain , Thunderstorm Light Thunderstorms and Rain
8:31 PM 71.6 °F - 69.8 °F 94% 30.06 in 10.0 mi ENE 5.8 mph - N/A Rain , Thunderstorm Light Thunderstorms and Rain
8:35 PM 71.6 °F - 69.8 °F 94% 30.06 in 10.0 mi North 2.3 mph - N/A Rain Light Rain
8:58 PM 72.1 °F - 70.9 °F 96% 30.09 in 10.0 mi SW 8.1 mph - 0.52 in Rain , Thunderstorm Light Rain
9:58 PM 73.6 °F - 73.0 °F 98% 30.06 in 10.0 mi SE 6.9 mph - 0.04 in Rain Light Rain
10:58 PM 75.2 °F - 74.7 °F 98% 30.02 in 10.0 mi South 9.2 mph - 0.02 in Rain Light Rain
11:33 PM 75.2 °F - 73.4 °F 94% 30.02 in 10.0 mi WNW 1.2 mph - N/A   Clear
11:58 PM 75.2 °F - 74.3 °F 97% 30.03 in 10.0 mi South 3.5 mph - 0.00 in   Clear